Regional Weather Roundup
Issued by NWS

Home | Current Version | Previous Version | Graphics & Text | Print | Product List | Glossary On
Versions: 1 2 3 4 5 6 7 8 9 10 11 12 13 14 15 16 17 18 19 20 21 22 23 24 25 26 27 28 29 30 31 32 33 34 35 36 37 38 39 40 41 42 43 44 45 46 47 48 49 50
000
ASUS45 KABQ 281710
RWRNM
WEATHER ROUNDUP FOR NEW MEXICO
NATIONAL WEATHER SERVICE ALBUQUERQUE NM
1100 AM MDT TUE APR 28 2015

NOTE: "FAIR" MEANS FEW OR NO CLOUDS BELOW 12,000 FEET AGL WITH NO
       SIGNIFICANT WEATHER OR OBSTRUCTIONS TO VISION.

      THIS PRODUCT IS RELEASED AS TWO VERSIONS.  ONE VERSION NEAR
      THE TOP OF THE HOUR CONTAINING PRELIMINARY DATA FROM ALBUQUERQUE
      AND OTHER STATIONS.  A FINAL VERSION WITH ADDITIONAL DATA IS
      ISSUED ABOUT 10 MINUTES AFTER THE HOUR.

NMZ501-503-504-510>518-281800-
NORTHWEST PLATEAU/NORTHCENTRAL MOUNTAINS

CITY           SKY/WX    TMP DP  RH WIND       PRES   REMARKS
FARMINGTON     MOSUNNY   54  39  57 SE5       30.28F
LOS ALAMOS     SUNNY     47  25  42 NE12      30.35S
SANTA FE       SUNNY     49  29  46 MISG      30.33S
TAOS           SUNNY     48  25  40 E5        30.34S
ANGEL FIRE     FAIR      38  25  60 N6        30.38R WCI  33

$$
NMZ402-403-502-505>509-281800-
WESTCENTRAL MOUNTAINS/SOUTHWEST MOUNTAINS

CITY           SKY/WX    TMP DP  RH WIND       PRES   REMARKS
GALLUP         SUNNY     55  37  50 N3        30.29F
GRANTS         PTSUNNY   49  36  60 SE12G18   30.35F
SILVER CITY      N/A     59  28  31 SE21G26   30.29F

$$
NMZ407-409-411-412-281800-
SOUTHERN DESERTS

CITY           SKY/WX    TMP DP  RH WIND       PRES   REMARKS
LORDSBURG      FAIR      61  32  33 SE24      30.26S
DEMING         SUNNY     60  29  30 E20G28    30.29S
LAS CRUCES     SUNNY     56  28  33 W3        30.30F
HOLLOMAN AFB   MOSUNNY   59  27  28 VRB2      30.26F
ALAMOGORDO     SUNNY     57  27  30 S6        30.28F
T OR C         SUNNY     58  28  32 NE16G22   30.30F

$$
NMZ519>523-281800-
CENTRAL VALLEYS/CENTRAL HIGHLANDS

CITY           SKY/WX    TMP DP  RH WIND       PRES   REMARKS
ALBUQUERQUE    MOSUNNY   54  34  46 CALM      30.34S
DOUBLE EAGLE   PTSUNNY   52  37  58 VRB6      30.35S
MORIARTY ARPT  FAIR      50  26  40 NE8       30.35S
CLINES CORNERS MOSUNNY   47  27  45 E17G23    30.33S
BELEN          FAIR      52  35  51 CALM      30.34S
SOCORRO        PTSUNNY   55  32  40 CALM      30.33F

$$
NMZ524>526-539-540-281800-
SOUTHCENTRAL MOUNTAINS

CITY           SKY/WX    TMP DP  RH WIND       PRES   REMARKS
RUIDOSO        SUNNY     45  25  45 NE7G17    30.36F

$$
NMZ527>531-281800-
NORTHEAST HIGHLANDS/NORTHEAST PLAINS

CITY           SKY/WX    TMP DP  RH WIND       PRES   REMARKS
LAS VEGAS      PTSUNNY   48  28  46 NE15G23   30.35S
RATON          SUNNY     51  25  36 NE17G26   30.34R
CLAYTON        CLOUDY    53  35  50 N17G26    30.31R

$$
NMZ532>537-281800-
EASTCENTRAL PLAINS

CITY           SKY/WX    TMP DP  RH WIND       PRES   REMARKS
TUCUMCARI      SUNNY     58  35  42 NE22G32   30.28F
CANNON AFB     SUNNY     53  33  46 NE22G28   30.28R
CLOVIS AIRPORT SUNNY     54  34  47 NE22G28   30.29R

$$
NMZ028-029-538-281800-
SOUTHEAST PLAINS

CITY           SKY/WX    TMP DP  RH WIND       PRES   REMARKS
ROSWELL        MOSUNNY   59  30  33 NE17G29   30.29F
ARTESIA        SUNNY     59  30  33 N17G29    30.29F
CARLSBAD       MOSUNNY   62  30  29 N18G26    30.27S
HOBBS          PTSUNNY   55  34  44 N20G28    30.26S


$$



USA.gov is the U.S. government's official web portal to all federal, state and local government web resources and services.